[[{"header":{"parameterUnit":"m.s-1","parameterCategory":1,"la1":30.2991,"la2":30.254,"lo1":-89.0895,"lo2":-89.0444,"dy":0.0017,"dx":0.0017,"nx":28,"ny":28,"refTime":"2024-04-18T03:00:00:Z","depth":0,"parameterNumber":2,"parameterNumberName":"U-component_of_WINDS"},"data":[0,0,0,0,0,0,0,0,0,0,0,0,0,0,0,0,0,0,0,0,0,0,0,0,0,0,0,0,0,0,0,0,0,0,0,0,0,0,0,0,0,0,0,0,0,0,0,0,0,0,0,0,0,0,0,0,0,0,-0.6208,-0.6207,0,-0.6123,-0.6122,-0.6121,-0.6059,-0.6058,-0.6058,-0.6057,-0.5971,-0.5969,-0.5968,0,0,0,0,0,0,0,0,0,0,0,0,0,-0.6318,-0.6317,-0.6208,-0.6207,-0.6206,-0.6123,-0.6122,-0.6121,-0.6059,-0.6058,-0.6058,-0.6057,-0.5972,-0.597,-0.5967,0,0,0,0,0,0,0,0,0,0,0,0,0,-0.6256,-0.6316,-0.6208,-0.6165,-0.616,-0.6123,-0.6122,-0.612,-0.6059,-0.6058,-0.6058,-0.6057,-0.5972,-0.597,-0.5967,-0.5966,0,0,-0.5959,-0.5958,0,0,0,0,0,0,0,0,-0.6259,-0.6252,-0.6172,-0.6168,-0.6163,-0.6101,-0.6129,-0.6069,-0.6059,-0.6098,-0.6057,-0.6056,-0.6015,-0.6009,-0.5994,-0.5962,-0.5958,-0.5959,-0.5957,-0.5956,-0.5955,0,0,0,0,0,0,0,-0.6264,-0.6255,-0.6174,-0.6171,-0.6165,-0.615,-0.6141,-0.6117,-0.6062,-0.6094,-0.609,-0.608,-0.6012,-0.5997,-0.5992,-0.5957,-0.5959,-0.5956,-0.5955,-0.5954,-0.5921,-0.5921,0,0,0,0,0,0,-0.6275,-0.6259,-0.6177,-0.6172,-0.621,-0.6149,-0.6138,-0.6121,-0.6062,-0.6052,-0.6081,-0.6078,-0.6002,-0.5995,-0.5989,-0.5984,-0.5956,-0.5953,-0.5952,-0.592,-0.5921,-0.5922,0,0,0,0,0,0,-0.6277,-0.6268,-0.618,-0.6214,-0.6202,-0.6148,-0.613,-0.612,-0.6105,-0.6052,-0.6042,-0.6076,-0.6001,-0.5993,-0.5972,-0.598,-0.5952,-0.595,-0.5919,-0.592,-0.5921,-0.5974,0,0,0,0,0,0,-0.6281,-0.6269,-0.6268,-0.6214,-0.62,-0.6165,-0.613,-0.6119,-0.61,-0.6095,-0.6044,-0.6035,-0.6,-0.5977,-0.597,-0.5976,-0.5948,-0.5918,-0.592,-0.5921,-0.5971,-0.5977,-0.5981,0,0,0,0,0,-0.6285,-0.6286,-0.6268,-0.6258,-0.6197,-0.6166,-0.6157,-0.6117,-0.6101,-0.61,-0.6066,-0.6037,-0.5981,-0.5975,-0.5967,-0.5972,-0.5917,-0.5919,-0.5921,-0.5969,-0.5976,-0.5981,0,0,0,0,0,0,-0.6342,-0.6278,-0.6257,-0.6241,-0.6209,-0.6155,-0.6152,-0.6125,-0.6097,-0.6093,-0.6044,-0.6033,-0.6018,-0.5993,-0.5988,-0.5968,-0.5945,-0.5946,-0.5985,-0.5991,-0.5996,-0.6002,-0.5945,0,0,0,0,0,-0.6353,-0.6332,-0.6277,-0.6269,-0.6254,-0.6206,-0.619,-0.6162,-0.6127,-0.6113,-0.6077,-0.6045,-0.602,-0.6004,-0.5978,-0.5968,-0.5956,-0.5967,-0.5973,-0.5977,-0.5977,-0.5971,-0.5975,-0.5927,-0.5927,-0.5927,0,0,-0.6374,-0.6337,-0.6327,-0.6279,-0.6251,-0.6231,-0.6195,-0.6175,-0.616,-0.611,-0.6088,-0.6062,-0.6022,-0.6007,-0.5999,-0.5986,-0.5988,-0.5979,-0.5983,-0.5981,-0.5973,-0.5977,-0.5982,-0.5928,-0.5928,-0.5928,0,0,-0.6404,-0.6374,-0.6363,-0.6335,-0.6293,-0.6261,-0.6259,-0.6209,-0.6189,-0.6167,-0.613,-0.6111,-0.6069,-0.6042,-0.6023,-0.6045,-0.6017,-0.6038,-0.6064,-0.6058,-0.6061,-0.6064,-0.6072,-0.6075,-0.6038,-0.6038,-0.6038,0,-0.6436,-0.6404,-0.6361,-0.6343,-0.6324,-0.6278,-0.6267,-0.6243,-0.6195,-0.6182,-0.6169,-0.6115,-0.6085,-0.6064,-0.6069,-0.6055,-0.6051,-0.6042,-0.6064,-0.6067,-0.6069,-0.6076,-0.6079,-0.6041,-0.6041,-0.6041,-0.604,0,-0.6446,-0.6424,-0.6421,-0.6375,-0.6355,-0.6341,-0.6297,-0.6282,-0.6256,-0.6226,-0.6205,-0.6167,-0.6133,-0.6126,-0.61,-0.6101,-0.6094,-0.6073,-0.6049,-0.6077,-0.6083,-0.6085,-0.6045,-0.6044,-0.6043,-0.6043,0,0,-0.6507,-0.6439,-0.6438,-0.6417,-0.6368,-0.6351,-0.6335,-0.6302,-0.629,-0.6259,-0.6245,-0.6211,-0.6191,-0.617,-0.6141,-0.6136,-0.6155,-0.6115,-0.6113,-0.6123,-0.6154,-0.6169,-0.6173,-0.6137,-0.6137,-0.6137,-0.6157,0,-0.6529,-0.6497,-0.6459,-0.6441,-0.6421,-0.6378,-0.6365,-0.6334,-0.6306,-0.6285,-0.6254,-0.6231,-0.6207,-0.6194,-0.6187,-0.6154,-0.616,-0.6152,-0.6123,-0.6123,-0.6134,-0.6176,-0.6192,-0.6212,-0.6159,-0.6159,-0.6159,0,-0.6549,-0.652,-0.65,-0.6453,-0.6443,-0.6432,-0.6398,-0.6379,-0.6343,-0.6323,-0.63,-0.6269,-0.6251,-0.6231,-0.6206,-0.6201,-0.6187,-0.617,-0.6169,-0.6165,-0.6142,-0.6172,-0.6217,-0.6221,-0.6162,-0.6162,-0.6162,0,-0.6596,-0.6552,-0.6534,-0.6517,-0.6462,-0.6455,-0.6432,-0.6395,-0.6378,-0.6349,-0.6338,-0.6308,-0.6291,-0.6269,-0.6231,-0.6219,-0.621,-0.6186,-0.6193,-0.6194,-0.6192,-0.6193,-0.6236,-0.6185,-0.6185,-0.6185,-0.6185,0,-0.6623,-0.6613,-0.6554,-0.6543,-0.6531,-0.6487,-0.6476,-0.6449,-0.6417,-0.6401,-0.6363,-0.6348,-0.6299,-0.6279,-0.625,-0.6234,-0.6227,-0.6211,-0.6203,-0.6213,-0.6216,-0.6203,-0.6201,-0.6185,-0.6185,-0.6185,-0.6185,0,-0.6672,-0.6633,-0.6611,-0.6561,-0.6548,-0.6541,-0.6498,-0.6487,-0.6457,-0.6437,-0.643,-0.6384,-0.6358,-0.6319,-0.6282,-0.6262,-0.6251,-0.6238,-0.6263,-0.6258,-0.6268,-0.6267,-0.6304,-0.6307,-0.6254,-0.6255,-0.6255,0,-0.6692,-0.6683,-0.6632,-0.6618,-0.6597,-0.6575,-0.6557,-0.6514,-0.6497,-0.6457,-0.645,-0.6422,-0.6397,-0.6359,-0.6322,-0.6294,-0.628,-0.6295,-0.6275,-0.6287,-0.628,-0.6281,-0.628,-0.6299,-0.63,-0.6301,-0.6301,0,-0.6732,-0.6713,-0.6688,-0.6657,-0.6637,-0.661,-0.6582,-0.6573,-0.6525,-0.6508,-0.6481,-0.6462,-0.6425,-0.6397,-0.6364,-0.6341,-0.6313,-0.6308,-0.6308,-0.6319,-0.6333,-0.6325,-0.6275,-0.6307,-0.6306,-0.6306,-0.6306,-0.6305,-0.6766,-0.6757,-0.6719,-0.6693,-0.6668,-0.6643,-0.6629,-0.6598,-0.6575,-0.6541,-0.6518,-0.6493,-0.6458,-0.6411,-0.6389,-0.637,-0.6358,-0.6358,-0.6358,-0.6358,-0.6363,-0.6337,-0.6364,-0.6364,-0.6363,-0.6363,-0.6363,0,-0.6804,-0.6778,-0.6754,-0.6716,-0.6696,-0.6672,-0.664,-0.6625,-0.6603,-0.6573,-0.655,-0.652,-0.6493,-0.6455,-0.6426,-0.6418,-0.6405,-0.6412,-0.6412,-0.6407,-0.6375,-0.6378,-0.6423,-0.6423,-0.6423,-0.6423,-0.6423,-0.6423,-0.6821,-0.6803,-0.678,-0.6749,-0.6723,-0.6698,-0.6682,-0.6659,-0.6635,-0.6603,-0.6581,-0.6556,-0.6523,-0.6491,-0.6466,-0.6456,-0.6447,-0.6458,-0.6444,-0.6414,-0.6409,-0.6404,-0.6406,-0.6456,-0.6456,-0.6477,-0.6477,-0.6477]},{"header":{"parameterUnit":"m.s-1","parameterCategory":1,"la1":30.2991,"la2":30.254,"lo1":-89.0895,"lo2":-89.0444,"dy":0.0017,"dx":0.0017,"nx":28,"ny":28,"refTime":"2024-04-18T03:00:00:Z","depth":0,"parameterNumber":3,"parameterNumberName":"V-component_of_WINDS"},"data":[0,0,0,0,0,0,0,0,0,0,0,0,0,0,0,0,0,0,0,0,0,0,0,0,0,0,0,0,0,0,0,0,0,0,0,0,0,0,0,0,0,0,0,0,0,0,0,0,0,0,0,0,0,0,0,0,0,0,3.4661,3.4662,0,3.4729,3.473,3.473,3.4777,3.4778,3.4778,3.4779,3.4844,3.4846,3.4847,0,0,0,0,0,0,0,0,0,0,0,0,0,3.4569,3.4571,3.4661,3.4662,3.4663,3.4729,3.473,3.4731,3.4777,3.4778,3.4778,3.4779,3.4844,3.4846,3.4847,0,0,0,0,0,0,0,0,0,0,0,0,0,3.462,3.4571,3.4661,3.4694,3.4698,3.4729,3.473,3.4731,3.4777,3.4778,3.4778,3.4779,3.4843,3.4845,3.4847,3.4849,0,0,3.4854,3.4855,0,0,0,0,0,0,0,0,3.4617,3.4623,3.4688,3.4692,3.4696,3.4745,3.4721,3.477,3.4777,3.4747,3.4779,3.4779,3.4811,3.4816,3.4827,3.4852,3.4855,3.4854,3.4855,3.4856,3.4857,0,0,0,0,0,0,0,3.4613,3.4621,3.4688,3.4689,3.4694,3.4705,3.4713,3.4731,3.4775,3.475,3.4753,3.4761,3.4813,3.4825,3.4829,3.4856,3.4854,3.4856,3.4857,3.4858,3.4887,3.4887,0,0,0,0,0,0,3.4605,3.4617,3.4686,3.469,3.4657,3.4706,3.4715,3.4729,3.4775,3.4782,3.476,3.4763,3.4821,3.4826,3.4831,3.4837,3.4856,3.4858,3.4859,3.4888,3.4887,3.4886,0,0,0,0,0,0,3.4603,3.4611,3.4683,3.4655,3.4665,3.4707,3.4722,3.473,3.4742,3.4783,3.4791,3.4765,3.4822,3.4828,3.4845,3.484,3.4859,3.4861,3.4888,3.4887,3.4887,3.4848,0,0,0,0,0,0,3.46,3.461,3.4612,3.4654,3.4666,3.4696,3.4722,3.4731,3.4746,3.475,3.4789,3.4796,3.4822,3.4841,3.4847,3.4843,3.4863,3.4889,3.4888,3.4887,3.485,3.4846,3.4843,0,0,0,0,0,3.4597,3.4597,3.4611,3.4619,3.4669,3.4696,3.4702,3.4734,3.4745,3.4747,3.4773,3.4795,3.484,3.4843,3.4849,3.4846,3.4889,3.4888,3.4887,3.4851,3.4847,3.4843,0,0,0,0,0,0,3.4551,3.4603,3.462,3.4634,3.466,3.4704,3.4707,3.4728,3.475,3.4753,3.479,3.4798,3.4811,3.483,3.4833,3.485,3.4867,3.4867,3.4838,3.4833,3.483,3.4825,3.4865,0,0,0,0,0,3.4543,3.4561,3.4605,3.4614,3.4626,3.4664,3.4677,3.4699,3.4727,3.4738,3.4766,3.4791,3.4811,3.4823,3.4844,3.4853,3.4862,3.4854,3.485,3.4847,3.4846,3.4853,3.485,3.4883,3.4883,3.4883,0,0,3.4526,3.4557,3.4566,3.4606,3.4628,3.4646,3.4673,3.469,3.4703,3.474,3.4758,3.4779,3.481,3.4823,3.483,3.4839,3.4839,3.4845,3.4843,3.4844,3.4851,3.4848,3.4845,3.4882,3.4882,3.4882,0,0,3.4504,3.4529,3.4539,3.4562,3.4597,3.4622,3.4624,3.4665,3.4681,3.4699,3.4728,3.4743,3.4777,3.4798,3.4813,3.4799,3.4819,3.4804,3.4785,3.4791,3.4788,3.4786,3.4781,3.4779,3.4804,3.4804,3.4804,0,3.4478,3.4507,3.4542,3.4557,3.4574,3.461,3.462,3.4639,3.4678,3.4689,3.4699,3.4742,3.4765,3.4784,3.478,3.4791,3.4795,3.48,3.4786,3.4784,3.4783,3.4779,3.4777,3.4802,3.4802,3.4802,3.4802,0,3.4473,3.4492,3.4496,3.4534,3.4551,3.4563,3.46,3.4612,3.4633,3.4657,3.4675,3.4704,3.4732,3.4738,3.4758,3.4759,3.4764,3.4779,3.4797,3.4777,3.4774,3.4772,3.4799,3.48,3.48,3.4801,0,0,3.4424,3.4482,3.4483,3.4501,3.4542,3.4557,3.4571,3.4599,3.4609,3.4635,3.4647,3.4675,3.469,3.4707,3.4729,3.4734,3.4722,3.475,3.4751,3.4743,3.4725,3.4713,3.471,3.4735,3.4735,3.4735,3.4722,0,3.4409,3.4437,3.4469,3.4486,3.4504,3.4538,3.455,3.4576,3.4599,3.4616,3.4641,3.466,3.4679,3.4689,3.4696,3.4722,3.4718,3.4723,3.4746,3.4747,3.4738,3.4709,3.4696,3.4682,3.4721,3.4721,3.4721,0,3.4394,3.442,3.4438,3.4478,3.4487,3.4497,3.4526,3.4542,3.4572,3.4588,3.4608,3.4632,3.4648,3.4663,3.4685,3.4687,3.4698,3.4713,3.4713,3.4716,3.4732,3.4711,3.4679,3.4677,3.4719,3.4719,3.4719,0,3.4357,3.4396,3.4412,3.4426,3.4473,3.448,3.4499,3.453,3.4545,3.4569,3.4579,3.4604,3.4618,3.4636,3.4667,3.4675,3.4685,3.4703,3.4698,3.4697,3.4699,3.4698,3.4668,3.4706,3.4706,3.4706,3.4706,0,3.4336,3.4346,3.4396,3.4406,3.4418,3.4455,3.4465,3.4488,3.4515,3.4529,3.456,3.4573,3.4612,3.4629,3.4653,3.4667,3.4673,3.4686,3.4692,3.4683,3.4681,3.4691,3.4693,3.4705,3.4705,3.4706,3.4706,0,3.4297,3.4331,3.4351,3.4394,3.4405,3.4412,3.4448,3.4459,3.4484,3.4501,3.4508,3.4546,3.4568,3.46,3.463,3.4646,3.4657,3.4667,3.4647,3.4651,3.4645,3.4645,3.4619,3.4618,3.4656,3.4656,3.4656,0,3.4281,3.429,3.4335,3.4347,3.4366,3.4386,3.4401,3.4437,3.4452,3.4487,3.4493,3.4517,3.4539,3.4571,3.4601,3.4625,3.4636,3.4625,3.464,3.4631,3.4636,3.4635,3.4636,3.4622,3.4621,3.4621,3.462,0,3.4251,3.4267,3.4289,3.4317,3.4335,3.4358,3.4383,3.4391,3.4432,3.4447,3.447,3.4487,3.4519,3.4543,3.4571,3.459,3.4611,3.4616,3.4616,3.4607,3.4596,3.4602,3.4638,3.4616,3.4617,3.4617,3.4617,3.4617,3.4223,3.4233,3.4266,3.4289,3.4312,3.4334,3.4346,3.4373,3.4393,3.4423,3.4443,3.4465,3.4494,3.4534,3.4552,3.457,3.4579,3.4579,3.4579,3.4579,3.4576,3.4593,3.4575,3.4575,3.4575,3.4575,3.4575,0,3.4194,3.4217,3.4239,3.4273,3.4291,3.4311,3.434,3.4353,3.4373,3.4399,3.442,3.4446,3.4469,3.4501,3.4526,3.4534,3.4544,3.4539,3.4539,3.4543,3.4566,3.4563,3.453,3.453,3.453,3.453,3.453,3.453,3.4182,3.4199,3.4219,3.4248,3.4271,3.4294,3.4308,3.4329,3.435,3.4378,3.4398,3.4419,3.4448,3.4475,3.4497,3.4506,3.4513,3.4505,3.4517,3.4537,3.4541,3.4545,3.4543,3.4506,3.4506,3.4493,3.4492,3.4492]}]]